Location: Central Springs Elementary School at Nora Springs
(43.1472°N, 93.0038°W)
Time: 19:42:04
(UTC+00:00)

Daily predictions for brighter satellites

Satellite Brightness Start Highest point End
(mag) Time Altitude Azimuth Time Altitude Azimuth Time Altitude Azimuth
Sich 1 Rocket 3.7 12:02:50 10° NNW 12:07:16 57° W 12:11:37 10° S
Cosmos 968 Rocket 4.2 12:02:43 10° NW 12:07:21 33° W 12:11:59 10° SSW
CENTAUR R/B 3.6 12:00:32 10° NW 12:08:49 53° WSW 12:17:54 10° S
SMAP 4.5 12:05:57 10° NNE 12:10:24 43° E 12:14:49 10° S
ATLAS 3B R/B 3.5 12:03:33 10° WSW 12:10:33 38° NW 12:17:48 10° NNE
Helios 1A Rocket 3.3 12:08:48 10° SSW 12:11:44 28° W 12:14:40 10° NW
Cosmos 1484 Rocket 2.4 12:09:27 10° N 12:12:57 64° WNW 12:16:24 10° SSW
NOSS 2-2 (C) 4.0 12:10:47 12° NW 12:14:35 55° WSW 12:20:19 10° SSE
COSMO-SKYMED 1 3.0 12:11:06 10° SSW 12:14:55 37° W 12:18:47 10° NNW
IRS-1D 4.2 12:12:44 10° N 12:16:54 28° WNW 12:21:04 10° WSW
Cosmos 2228 4.3 12:14:33 10° N 12:18:37 42° ENE 12:22:38 10° SSE
Cosmos 292 Rocket 3.7 12:14:35 10° NNW 12:19:23 73° WSW 12:24:06 10° SSE
CZ-3 R/B 3.4 12:12:17 10° WSW 12:21:56 26° SSW 12:26:33 10° SE
SL-8 R/B 4.3 12:17:48 10° SW 12:22:30 60° SSE 12:27:11 10° ENE
Gbstr 26 Del rocket 4.0 12:17:52 11° NW 12:23:05 69° NNE 12:29:39 10° ESE
IGS 5A 3.3 12:20:53 10° N 12:24:52 73° WNW 12:28:48 10° SSW
SL-16 R/B 3.7 12:24:42 10° W 12:28:09 16° NW 12:31:37 10° N
USA 234 3.4 12:26:05 10° SE 12:32:34 64° SW 12:39:05 10° NW
Cosmos 1302 Rocket 4.2 12:27:52 10° SW 12:32:49 45° WNW 12:37:48 10° N
Cosmos 1975 Rocket 3.1 12:28:54 10° S 12:33:10 87° E 12:37:29 10° N
Cosmos 1315 Rocket 2.9 12:32:58 10° N 12:36:49 77° ENE 12:40:38 10° SSE
Cosmos 1992 Rocket 4.0 12:32:11 10° SSW 12:37:23 76° WNW 12:42:37 10° NNE
Cosmos 1441 Rocket 3.5 12:35:05 10° SW 12:38:06 32° WNW 12:41:08 10° N
CORIOLIS 4.3 12:35:01 10° NNE 12:40:23 84° ESE 12:45:45 10° SSW
Tsikada Rocket 4.1 12:34:12 10° SSW 12:40:27 64° W 12:46:51 10° N
CBERS-1 4.1 23:08:30 10° SSE 23:13:37 88° W 23:18:45 10° NNW
SMAP 3.3 23:09:51 10° SE 23:14:20 49° ENE 23:18:50 10° N
YAOGAN 1 4.4 23:13:55 10° ENE 23:15:03 11° ENE 23:16:12 10° NE
Cosmos 44 Rocket 3.6 23:11:33 10° SSW 23:16:07 51° ESE 23:20:51 10° NE
BREEZE-M DEB (TANK) 2.4 23:15:58 10° SW 23:18:08 62° SE 23:22:38 10° ENE
Cosmos 1833 Rocket 3.1 23:12:43 10° NNW 23:18:21 69° WSW 23:23:56 10° SSE
USA 215 3.4 23:12:07 10° ESE 23:18:28 57° NNE 23:24:51 10° NW
RESURS DK-1 2.7 23:17:03 10° NNW 23:20:52 41° ENE 23:24:39 10° SE
Meteor 1-28 Rocket 3.5 23:18:06 10° N 23:21:26 59° WNW 23:24:45 10° SSW
SL-12 R/B(2) 4.3 23:15:39 10° SSW 23:23:22 76° ESE 23:32:48 10° NE
Cosmos 540 Rocket 3.7 23:19:55 10° N 23:24:53 47° ENE 23:29:47 10° SE
Landsat 7 4.0 23:21:58 10° SE 23:26:24 47° ENE 23:30:52 10° N
Cosmos 1400 Rocket 4.2 23:24:22 10° SE 23:26:49 17° E 23:29:17 10° NE
SJ-12 4.0 23:26:14 10° SE 23:29:51 45° ENE 23:33:30 10° N
Helios 1A Rocket 4.4 23:31:24 11° E 23:32:06 12° E 23:33:30 10° ESE
Cosmos 1763 Rocket 3.4 23:29:01 10° NNW 23:34:13 68° ENE 23:39:18 10° SSE
Tsikada Rocket 4.4 23:30:05 10° NNW 23:36:29 73° W 23:42:46 10° S
Cosmos 1140 Rocket 4.5 23:32:40 10° SW 23:37:39 47° WNW 23:42:37 10° N
UNK 3.9 23:35:07 10° N 23:39:44 77° WNW 23:44:19 10° SSW
Cosmos 1536 Rocket 4.4 23:37:42 10° NNE 23:41:31 27° ENE 23:45:16 10° SE
Cosmos 371 Rocket 4.2 23:38:26 10° SSE 23:42:27 27° E 23:46:07 12° NE
Okean 2 Rocket 4.0 23:41:01 10° SE 23:44:41 27° E 23:48:21 10° NNE
Timation 1 Rocket 4.3 23:46:52 10° NNW 23:52:53 83° ENE 23:58:50 10° SSE
SL-16 R/B 3.9 23:48:29 10° N 23:54:14 40° WNW 23:59:58 10° SW
COSMO-SKYMED 1 3.4 23:52:15 15° NE 23:54:53 26° E 23:58:22 10° SSE
Cosmos 1602 3.2 23:52:25 10° N 23:55:24 48° E 23:58:22 10° SSE
